map of KUA home
Great Circle Mapper logo
KUA - Airport
Location
City:  Kuantan, Pahang, Malaysia
Name:Sultan Abmad Shah Airport
Old (Alt.):Pedang Geroda Airport
ICAO / IATA:WMKD / KUA

Details
Type:Airport (Aerodrome, Airfield)
Use:Military
Latitude:346'31"N (3.775389)
Longitude:10312'33"E (103.209056)
Datum:WGS 1984
Elevation:58 ft (18 m)
Variation:0.06E (WMM2015 magnetic declination)
-0.00 annual change
Runways:1
Longest:9200 × 150 ft (2804 × 45.5 m), paved

Time
Time Zone:UTC+8
Local Time:

Weather
METAR:WMKD 270800Z 02004KT 8000 -TSRA FEW017CB SCT018 BKN280 27/25 Q1009 TEMPO 5000 TSRA

Related Locations
Nearby:
Farthest:SPGB: 12379 mi / 19923 km
Galilea, AMA, PE

Find:

   beyond  
but within

Other Information
Maps:
NOTAMs:
Links:
Sources:

  
flag of Malaysia   

Sectional Chart

Flight Planning
at skyvector.com

Satellite Image

Google Maps Satellite View

 

Copyright © 2004-2015 Karl L. Swartz. All rights reserved.
The Great Circle Mapper name and logo are trademarks of the Great Circle Mapper.
All other trademarks mentioned herein belong to their respective owners.
Please see credits for attibutions and further copyright information.

  Follow gcmap on Facebook Follow gcmap on Twitter Follow gcmap on Google+

hCard Microformat

Geo Microformat